Regional Weather Roundup
Issued by NWS Upton, NY

Current Version | Previous Version | Text Only | Print | Product List | Glossary On
Versions: 1 2 3 4 5 6 7 8 9 10 11 12 13 14 15 16 17 18 19 20 21 22 23 24 25 26 27 28 29 30 31 32 33 34 35 36 37 38 39 40 41 42 43 44 45 46 47 48 49 50
000 ASUS41 KOKX 121404 RWROKX REGIONAL WEATHER ROUNDUP NATIONAL WEATHER SERVICE NEW YORK NY 900 AM EST FRI FEB 12 2016 NOTE: "FAIR" INDICATES FEW OR NO CLOUDS BELOW 12,000 FEET WITH NO SIGNIFICANT WEATHER AND/OR OBSTRUCTIONS TO VISIBILITY. NYZ071-072-176-178-NJZ106-104-121500- NEW YORK CITY METRO AREA CITY SKY/WX TMP DP RH WIND PRES REMARKS CENTRAL PARK SUNNY 17 -1 45 W5 30.28S WCI 10 LAGUARDIA APRT MOSUNNY 19 0 43 W8 30.27S WCI 9 KENNEDY INTL MOSUNNY 20 -1 40 W9 30.29S WCI 9 NEWARK/LIBERTY MOSUNNY 20 0 41 W7 30.28S WCI 11 BRNX BOT. GARD N/A 19 1 45 W7 30.26S WCI 10 TETERBORO SUNNY 19 0 43 VRB6 30.26F WCI 11 $$ NYZ177-179-078>081-121500- LONG ISLAND NEW YORK CITY SKY/WX TMP DP RH WIND PRES REMARKS FARMINGDALE SUNNY 19 1 45 W6 30.26F WCI 11 ISLIP MOSUNNY 18 2 49 W7 30.25F WCI 9 SHIRLEY MIX PCPN 17 3 54 W9 30.26F WCI 6 RIVERHEAD N/A 19 -2 38 S6 30.24S WCI 11 WESTHAMPTON SUNNY 16 4 59 W8 30.27F WCI 5 EAST HAMPTON FAIR 17 4 55 W5 30.25S WCI 10 MONTAUK POINT N/A 20 8 60 W8 30.25F WCI 10 $$ NYZ052-065-067-121500- HUDSON VALLEY CITY SKY/WX TMP DP RH WIND PRES REMARKS WHITE PLAINS SUNNY 16 0 49 NW8 30.21S WCI 5 NEWBURGH SUNNY 14 3 62 W14 30.21S WCI -1 MONTGOMERY SUNNY 16 3 56 S8 30.20S WCI 5 POUGHKEEPSIE SUNNY 17 1 49 SW7 30.22F WCI 8 ALBANY MOSUNNY 11 0 61 S8 30.18F WCI -1 $$ NJZ001-105-106-008-010-013-015-019>022-104-121500- NEW JERSEY CITY SKY/WX TMP DP RH WIND PRES REMARKS NEWARK/LIBERTY MOSUNNY 20 0 41 W7 30.28S WCI 11 TETERBORO SUNNY 19 0 43 VRB6 30.26F WCI 11 CALDWELL SUNNY 17 -1 45 SW5 30.26F WCI 10 MORRISTOWN SUNNY 18 3 53 NW8 30.26F WCI 7 SOMERVILLE SUNNY 19 4 51 S5 30.25F WCI 12 SUSSEX SUNNY 16 1 51 W6 30.19F WCI 7 ANDOVER N/A 15 2 56 VRB3 30.21F TRENTON SUNNY 18 2 49 W7 30.26F WCI 9 MILLVILLE SUNNY 20 4 50 NW8 30.30F WCI 10 ATLANTIC CITY SUNNY 20 3 48 W7 30.29F WCI 11 WRIGHTSTOWN SUNNY 20 1 43 NW6 30.25F WCI 12 TOMS RIVER SUNNY 19 1 45 NW9 30.28F WCI 9 BELMAR SUNNY 19 0 42 W6 30.27S WCI 11 $$ PAZ047>061-062-071-121500- EASTERN PENNSYLVANIA CITY SKY/WX TMP DP RH WIND PRES REMARKS PHILADELPHIA MOSUNNY 20 0 41 NW5 30.30F WCI 13 ALLENTOWN SUNNY 16 2 54 W8 30.24F WCI 5 SCRANTON SUNNY 13 1 59 SW8 30.16S WCI 2 $$ CTZ002-004>006-009-010-012-RIZ004-006-007-MAZ004-011-015-121500- SOUTHERN NEW ENGLAND IN CT CITY SKY/WX TMP DP RH WIND PRES REMARKS BRADLEY INTL MOSUNNY 10 0 63 SW7 30.20S WCI -1 HARTFORD SUNNY 14 1 56 SW5 30.24S WCI 6 DANBURY SUNNY 14 -1 51 SW12 30.21S WCI 0 WTRBRY/OXFORD MOSUNNY 12 -4 48 W6 30.18R WCI 3 BRIDGEPORT SUNNY 18 2 49 W9 30.25S WCI 7 MERIDEN SUNNY 14 2 58 S6 30.23S WCI 5 NEW HAVEN SUNNY 16 3 56 W6 30.24S WCI 7 CHESTER FAIR 14 3 62 SW7 30.21R WCI 4 GROTON SUNNY 16 4 59 W7 30.25R WCI 6 WILLIMANTIC SUNNY 12 0 58 CALM 30.21F IN RI CITY SKY/WX TMP DP RH WIND PRES REMARKS PROVIDENCE MOSUNNY 13 -2 51 W5 30.23S WCI 5 BLOCK ISLAND SUNNY 21 7 53 W13 30.21F WCI 9 WESTERLY SUNNY 16 3 56 W8 30.25R WCI 5 IN MA CITY SKY/WX TMP DP RH WIND PRES REMARKS BOSTON MOSUNNY 12 -5 46 W14 30.20S WCI -3 WORCESTER SUNNY 6 -4 63 W15 30.09F WCI -12 WESTFIELD SUNNY 10 -1 61 S6 30.19S WCI 0 PROVINCETOWN MOSUNNY 14 5 67 NW14G23 30.20S WCI -1 NANTUCKET SUNNY 17 3 54 W16G23 30.22S WCI 2 $$ ANZ330-335-338-340-345-350-353-355-121500- COASTAL MARINE OBSERVATIONS STATION/POSITION TIME SKY/WX TEMP WIND PRES VSBY WAVE AIR SEA DIR/SP/G HT/PER (UTC) (F) (DEG/KT/KT) (MB) (MI) (FT/S) NY HARB ENTRANCE 1250 20 42 310/ 12/ 17 1025.1 2/ 3 4S FIRE IS NOT AVBL 20S FIRE ISLAND 1250 21 42 310/ 12/ 16 1025.1 4/ 5 GREAT SOUTH BAY NOT AVBL 23SW MTP 1350 20 45 290/ 8/ 14 1024.3 4/ 6 HUDSON CANYON 1250 25 48 1024.6 6/ 7 KINGS POINT 1300 17 34 340/ 7/ 12 1024.6 EXECUTION ROCKS NOT AVBL CENTRAL LI SOUND 1300 19 260/ 12/ 16 N/A 2/ 4 EASTERN LI SOUND 1300 19 41 260/ 16/ 21 N/A ROBBINS REEF 1300 17 290/ 10/ 13 1024.5 $$ >>>>>>>>>>>>>>>>>>>>>>>>>>>> KEY <<<<<<<<<<<<<<<<<<<<<<<<<<< > < > SKY/WX - SKY CONDITION/PRESENT WEATHER < > TMP - TEMPERATURE IN FAHRENHEIT < > DP - DEWPOINT IN FAHRENHEIT < > RH - RELATIVE HUMIDITY IN PERCENT < > WIND - DIRECTION AND SPEED IN MPH < > PRES - MEAN SEA LEVEL PRESSURE IN INCHES OF HG < > WCI - WIND CHILL INDEX < > VSB - VISIBILITY IN MILES < > HX - HEAT INDEX < > TC - TEMPERATURE IN CELSIUS < > VRB - VARIABLE WIND DIRECTION < > < >>>>>>>>>>>>>>>>>>>>>>>>>>>> KEY <<<<<<<<<<<<<<<<<<<<<<<<<<<

USA.gov is the U.S. government's official web portal to all federal, state and local government web resources and services.